Temperature
21 20 21 20 20 20 20 20 20 19 19 19 19 19 19 19 19 19 19 19 19 19 19 19 19 19 19 20 20 20 20 20 20 20 20 19 19 19 19 18 17 17 18
21 21 21 20 20 20 20 20 20 20 19 19 19 19 19 19 19 19 19 19 19 19 19 19 19 19 19 19 20 20 20 20 20 20 20 19 19 19 19 19 18 18 19
21 22 22 21 20 20 20 20 20 20 19 19 19 19 19 19 19 19 19 19 19 19 19 19 19 19 19 19 19 19 20 20 19 19 19 18 18 19 19 19 19 19 19
21 22 22 21 20 20 20 20 20 20 20 20 20 19 19 19 19 19 19 19 19 19 19 19 19 19 19 19 19 19 19 19 19 19 18 18 18 19 19 19 19 19 18
21 21 22 21 21 20 20 20 20 20 20 20 20 20 19 19 19 19 19 19 19 19 19 19 19 19 19 19 18 18 19 19 19 19 18 18 18 18 19 19 19 19 18
20 20 21 21 21 20 20 20 20 20 20 20 20 19 19 19 19 19 19 19 19 19 19 19 19 19 19 19 18 18 18 18 18 18 18 17 18 18 18 18 18 18 18
20 20 21 21 21 20 20 20 20 20 20 20 19 19 19 19 19 19 19 19 19 19 19 19 18 18 18 18 18 18 18 18 18 18 17 17 17 17 18 18 18 18 17
20 20 19 21 21 20 20 20 20 20 20 20 19 19 19 19 19 19 19 19 19 19 18 18 18 18 18 18 18 18 18 18 17 18 17 17 17 17 18 18 18 17 17
21 20 19 20 21 20 20 20 20 20 20 19 19 19 19 19 19 19 19 19 19 19 19 18 18 18 18 18 18 18 18 18 18 18 18 17 17 17 18 18 17 17 17
20 19 19 19 19 20 20 20 20 20 20 19 19 19 19 19 19 19 19 19 19 18 18 18 18 18 18 18 18 18 18 18 17 18 18 18 17 18 18 18 17 17 17
19 19 19 19 18 18 18 19 20 20 19 19 19 19 19 18 18 18 18 18 19 18 18 18 18 18 18 18 18 18 18 18 18 18 18 18 18 18 18 18 17 17 17
19 19 19 18 18 18 18 18 18 18 19 19 18 18 18 18 18 18 18 19 19 19 19 18 18 18 18 18 18 18 18 17 18 18 18 18 18 18 18 18 17 17 17
19 19 19 19 19 18 18 18 18 18 18 18 18 18 18 18 18 18 18 18 18 18 18 18 18 18 18 18 18 18 18 18 18 18 18 18 18 18 17 17 17 17 17
20 19 19 19 20 19 19 18 18 18 18 18 18 18 18 18 18 18 18 18 18 18 18 18 18 18 17 17 18 18 18 18 18 18 18 18 18 18 17 17 17 17 17
20 20 19 19 20 20 19 19 18 19 19 18 18 18 18 18 18 18 18 18 18 18 18 18 18 18 18 17 18 18 18 18 18 18 18 18 18 18 18 17 17 17 17
20 20 19 19 20 20 20 20 19 19 19 19 18 18 18 18 18 18 18 18 18 18 18 18 18 18 18 18 18 18 18 18 18 18 18 18 18 18 18 18 18 18 17
21 20 19 20 20 20 20 19 18 18 19 18 18 18 18 18 18 18 18 18 18 18 18 18 18 18 18 18 18 18 18 18 18 18 18 18 18 18 19 19 18 18 18
21 20 19 19 19 20 20 19 18 18 19 18 18 18 18 18 18 18 18 18 18 18 18 18 18 18 18 18 18 18 18 18 18 18 18 18 18 18 18 18 19 18 18
20 20 19 19 19 20 20 20 19 18 18 18 18 18 18 18 18 18 18 18 18 18 18 18 18 18 18 18 18 18 18 18 18 18 18 18 18 18 18 18 18 19 18
20 20 20 20 20 20 19 19 19 19 18 18 18 18 18 18 18 18 18 18 18 18 18 18 18 18 18 18 18 18 18 18 18 19 18 19 19 19 18 18 18 18 18
20 20 20 21 21 21 20 19 19 19 19 18 18 18 18 18 18 18 18 18 18 18 17 17 17 17 17 17 17 18 18 19 19 18 18 18 19 19 19 18 18 18 18
20 20 19 20 20 20 20 20 19 19 18 18 18 18 18 18 18 17 17 17 17 17 17 17 17 17 17 17 17 18 19 20 19 19 18 18 18 18 18 18 18 18 18
19 19 19 19 19 19 19 19 18 18 18 18 18 18 18 18 18 17 16 16 16 17 16 17 17 17 16 16 16 16 18 19 19 19 18 18 17 17 18 18 17 17 18
18 18 18 18 18 18 19 18 18 18 18 18 18 18 18 18 17 16 16 16 16 16 16 16 16 16 16 16 16 16 16 16 16 17 18 18 17 17 17 17 17 17 17
17 17 17 17 18 18 18 18 17 17 17 17 17 17 17 17 16 15 15 15 15 15 16 16 16 16 16 15 16 16 15 16 15 15 17 17 17 17 17 17 17 17 17
17 17 17 17 17 17 17 17 17 17 17 17 17 16 16 16 15 15 15 15 15 15 15 15 15 15 15 15 15 15 15 15 15 15 15 16 16 16 16 16 16 16 16
Wind_Speed
15 19 22 17 15 14 15 16 16 16 16 16 15 14 14 13 12 11 10 10 9 10 10 9 9 9 10 10 10 10 10 10 10 10 9 9 8 8 8 7 6 10 11
18 22 23 19 17 16 16 16 16 16 16 16 15 14 13 12 11 10 9 9 8 8 8 8 8 8 8 8 9 9 8 8 8 8 8 9 8 6 6 3 4 10 10
20 22 23 20 18 17 16 16 16 16 16 15 14 13 12 11 11 10 9 9 8 7 7 7 7 7 7 7 7 7 7 6 6 5 6 7 9 7 5 4 3 7 7
20 21 21 21 19 17 16 16 15 15 15 14 13 12 12 11 10 10 9 8 7 6 6 5 5 5 6 6 6 5 5 5 4 6 8 3 5 9 5 5 5 6 6
18 19 21 22 19 18 17 16 15 14 13 12 12 11 11 10 10 9 8 8 7 6 5 4 4 4 4 5 6 6 6 5 5 9 6 4 4 8 5 7 8 8 8
17 18 21 22 19 18 17 16 15 14 13 12 11 10 10 9 9 8 7 7 6 5 4 4 4 4 4 4 5 6 6 7 9 11 7 8 8 8 6 8 11 11 11
17 17 20 21 19 18 16 15 14 13 12 11 11 10 9 9 8 7 7 6 6 5 5 4 4 5 5 5 5 6 6 7 11 10 8 10 8 6 6 10 12 14 14
16 16 19 19 18 17 16 15 14 13 12 11 11 10 10 9 8 8 7 7 6 6 6 6 5 5 6 6 7 7 8 10 12 11 11 11 8 6 8 10 11 15 16
15 14 16 18 18 17 16 15 15 14 12 11 11 10 10 9 9 9 8 8 7 7 7 7 7 7 7 8 9 9 10 10 13 11 11 10 8 8 11 12 12 13 17
14 14 14 16 16 17 17 16 15 14 13 11 10 10 10 10 11 10 11 11 9 9 9 9 9 9 10 10 11 11 10 12 15 13 11 9 10 9 12 14 14 13 16
13 12 12 13 14 14 15 16 16 14 13 12 12 12 11 12 13 12 12 8 9 10 11 11 12 12 12 15 16 14 12 12 12 10 10 4 7 10 13 15 16 16 16
16 14 12 12 12 13 12 13 13 14 14 14 12 12 13 11 9 9 5 7 10 11 12 14 14 14 16 12 14 17 11 11 11 9 9 8 9 13 15 17 18 18 18
15 15 13 12 11 12 10 10 10 10 10 13 13 11 10 9 9 9 8 9 11 12 12 11 12 11 10 8 8 8 10 9 8 8 7 11 13 15 15 16 17 18 19
15 16 15 13 11 11 11 9 9 9 8 9 11 12 11 8 8 8 7 8 8 8 8 8 7 9 10 10 10 10 10 9 9 8 6 9 13 15 15 15 16 16 18
16 15 14 13 12 11 10 8 9 9 9 10 9 11 11 9 8 8 7 7 9 8 8 8 8 8 8 10 10 10 10 10 11 11 9 11 16 17 16 15 15 15 16
15 15 14 14 13 12 11 10 9 10 10 11 10 12 12 11 9 8 8 8 9 9 9 8 9 8 8 8 9 10 10 12 11 11 12 12 18 18 18 17 16 16 16
13 13 13 13 13 13 13 13 11 11 11 11 11 12 13 13 11 10 10 9 9 10 9 10 10 9 9 9 10 10 10 10 11 11 12 12 12 16 19 19 18 17 17
11 12 12 11 13 14 13 12 11 11 11 10 11 12 14 15 14 11 11 11 10 10 9 9 9 10 9 10 10 10 10 10 12 12 13 12 11 11 13 19 19 18 17
11 11 12 13 13 13 14 12 12 11 11 11 11 12 13 15 15 13 11 10 10 9 9 10 9 9 10 10 11 11 12 12 12 13 14 14 14 14 14 12 19 19 18
11 13 13 14 14 13 12 12 11 12 12 12 12 11 13 13 15 13 10 11 10 9 9 9 9 9 9 10 12 13 13 14 14 14 15 15 14 16 16 15 14 17 21
10 13 14 15 15 13 12 12 12 12 12 11 10 11 11 12 12 10 10 9 9 8 9 10 9 11 10 9 11 13 13 14 14 13 13 14 14 14 14 14 14 14 13
7 9 12 14 14 15 13 12 11 11 10 9 6 5 6 7 8 8 9 8 8 7 8 9 8 8 8 7 9 10 10 10 9 10 10 10 11 10 11 12 13 12 13
5 6 7 10 12 14 14 12 9 8 7 7 6 6 6 6 6 5 6 6 6 8 8 8 7 8 8 7 7 7 7 9 7 6 8 8 9 8 9 8 9 11 12
6 6 7 8 9 11 12 13 15 12 11 11 8 7 7 6 6 6 6 6 7 8 7 7 7 7 7 7 6 7 9 8 7 8 8 7 8 8 8 7 7 7 9
7 7 7 7 8 8 10 12 13 13 11 9 8 9 8 7 7 7 6 6 8 8 6 5 5 6 6 7 6 7 8 8 10 8 10 9 8 7 5 6 5 5 5
7 7 8 8 8 8 9 10 12 13 12 10 10 9 9 7 8 10 9 9 9 7 7 6 6 6 6 6 6 6 6 6 6 6 7 9 8 6 5 4 3 2 2
Wind_Direction
158 152 151 159 157 150 141 136 137 140 144 147 148 148 149 151 150 145 138 132 123 115 110 106 102 101 107 111 112 110 110 110 110 110 110 110 109 111 116 132 158 115 111
153 152 155 161 160 155 146 139 137 138 141 145 148 149 151 152 153 150 147 143 137 126 118 114 111 110 113 116 118 120 121 122 122 123 132 136 128 124 126 133 353 104 129
151 152 159 163 162 158 151 145 142 142 145 147 150 152 154 156 157 156 155 153 148 139 130 125 122 120 121 124 127 130 133 138 142 151 205 177 137 144 147 149 119 130 146
152 155 162 162 164 161 156 152 150 149 150 151 153 156 160 162 163 161 159 156 153 148 141 136 134 133 136 142 146 148 152 161 175 209 223 181 162 140 179 183 179 177 175
154 158 158 163 167 164 161 159 157 156 154 154 156 160 164 168 169 166 162 161 161 159 156 153 149 150 157 167 173 175 181 192 211 240 232 220 219 138 188 206 200 200 200
159 162 159 168 169 168 166 165 164 162 161 161 162 165 168 171 173 172 172 173 174 175 180 184 183 183 185 189 193 197 204 213 231 238 233 231 229 159 201 225 217 212 210
164 163 161 172 173 173 172 171 171 170 170 171 173 174 175 176 179 183 187 190 192 196 202 208 213 211 211 215 220 223 228 236 253 258 246 241 236 167 225 247 237 223 218
166 166 159 173 178 178 178 178 178 179 181 182 182 183 185 186 189 194 200 206 209 210 212 217 223 226 229 235 237 238 238 251 251 252 246 245 213 188 243 260 256 235 226
169 168 164 174 181 184 186 186 185 187 189 192 194 195 196 199 204 209 214 219 224 225 226 227 228 233 238 241 243 242 243 249 265 263 257 250 182 202 245 259 263 248 234
174 173 174 177 181 186 189 191 193 193 197 202 207 210 209 212 216 219 225 217 228 238 241 241 241 242 244 246 246 244 245 249 251 252 248 235 171 215 248 257 259 257 245
181 180 184 181 183 190 193 184 193 199 204 209 213 214 220 226 220 211 223 195 229 246 251 252 251 251 251 243 238 240 242 251 253 256 256 187 179 230 248 254 256 256 252
186 187 190 188 188 193 198 183 202 205 204 216 222 215 220 232 244 245 161 209 241 251 255 251 252 253 249 254 230 216 242 241 258 256 244 185 217 240 249 251 252 252 251
190 190 192 193 196 199 201 199 207 213 209 216 224 225 234 240 234 238 236 219 228 238 248 240 239 250 254 259 279 259 260 264 253 256 241 184 221 239 250 253 252 251 249
195 196 193 194 198 209 214 207 213 218 216 223 214 223 228 232 245 246 248 255 249 242 247 262 260 262 269 274 267 265 265 260 265 266 260 206 228 240 249 254 254 249 246
196 199 197 195 201 207 219 225 222 226 226 224 233 223 236 240 239 242 247 252 259 259 253 248 258 270 274 271 273 272 274 274 269 267 267 234 235 242 247 251 253 249 244
200 201 200 200 204 207 213 222 227 231 227 240 231 230 228 240 243 246 245 247 254 258 263 270 269 269 269 274 274 274 273 273 269 266 263 250 223 229 240 246 248 247 242
204 203 203 204 207 209 216 224 230 233 231 231 231 231 230 236 237 242 250 250 251 254 254 257 264 269 267 266 268 272 270 269 271 270 269 269 259 226 224 235 240 241 237
212 210 210 212 209 211 217 227 234 237 237 235 236 233 228 236 240 244 251 253 254 256 257 259 263 267 269 271 274 278 280 275 267 265 262 256 259 265 236 221 228 232 231
217 218 218 219 218 214 216 220 232 237 242 243 240 240 235 236 242 245 252 259 263 262 262 265 263 266 274 278 279 273 272 272 271 266 264 262 256 254 260 232 215 224 226
220 220 221 218 219 217 217 220 228 232 233 236 241 245 250 252 251 252 252 256 260 263 265 263 269 267 274 278 281 282 277 273 269 266 264 262 257 253 251 253 237 224 218
228 225 223 223 216 215 218 220 222 226 229 233 238 250 263 270 273 268 262 263 260 258 264 271 272 273 272 278 281 281 276 266 260 260 262 266 266 262 258 249 245 243 220
251 242 237 231 227 221 224 224 228 233 233 231 233 246 267 277 279 274 271 265 262 265 265 266 266 278 281 276 279 291 289 280 256 251 255 259 268 270 264 250 239 238 243
307 285 270 259 247 236 235 231 228 226 226 222 218 220 225 234 249 240 250 257 264 261 256 254 258 256 266 271 263 272 289 296 316 277 264 264 266 270 268 264 244 236 232
341 326 308 290 271 256 244 238 230 227 227 226 216 214 213 208 220 224 221 231 244 248 247 247 248 256 258 270 266 254 260 276 279 287 274 266 265 264 265 259 251 236 233
342 335 326 313 298 281 262 250 243 241 240 234 218 206 199 193 201 211 216 217 227 235 237 245 247 256 260 271 279 278 275 269 258 263 281 287 284 275 264 250 246 246 237
334 331 328 320 306 293 275 262 250 245 243 233 215 203 196 194 196 202 206 217 223 226 222 231 243 246 264 276 280 280 280 280 281 273 280 290 290 287 288 286 275 273 263
Height
1532 1533 1535 1538 1541 1543 1546 1548 1550 1551 1553 1554 1555 1556 1557 1558 1560 1561 1562 1563 1563 1564 1565 1565 1566 1566 1566 1566 1566 1566 1566 1566 1567 1567 1567 1567 1567 1567 1567 1567 1567 1568 1567
1530 1532 1535 1538 1541 1544 1546 1549 1550 1552 1554 1555 1556 1557 1558 1559 1560 1562 1563 1564 1564 1565 1566 1566 1566 1566 1567 1567 1567 1568 1568 1568 1568 1568 1569 1569 1569 1569 1569 1569 1569 1570 1569
1530 1532 1535 1538 1541 1544 1547 1549 1551 1553 1554 1556 1557 1558 1559 1560 1561 1562 1563 1564 1564 1565 1566 1566 1567 1567 1567 1567 1567 1568 1568 1569 1569 1570 1570 1573 1571 1570 1570 1570 1570 1570 1570
1531 1533 1535 1538 1541 1544 1547 1550 1552 1553 1555 1556 1558 1559 1559 1560 1561 1561 1562 1563 1564 1565 1565 1566 1566 1567 1567 1567 1567 1568 1568 1569 1569 1570 1572 1574 1574 1571 1570 1570 1570 1570 1571
1532 1534 1536 1539 1542 1545 1548 1550 1552 1554 1556 1557 1558 1559 1560 1560 1561 1561 1562 1563 1564 1564 1565 1565 1566 1566 1567 1567 1567 1567 1567 1568 1568 1569 1573 1572 1573 1571 1570 1570 1570 1570 1570
1533 1536 1537 1540 1543 1546 1548 1551 1553 1555 1556 1558 1558 1559 1560 1560 1561 1562 1562 1563 1564 1564 1565 1565 1565 1566 1566 1566 1566 1566 1566 1567 1567 1570 1571 1570 1571 1569 1569 1569 1569 1569 1570
1536 1538 1538 1541 1544 1547 1549 1552 1554 1555 1557 1558 1559 1559 1560 1560 1561 1562 1562 1563 1563 1564 1564 1564 1565 1565 1565 1565 1565 1565 1565 1565 1565 1569 1568 1568 1568 1566 1567 1568 1568 1568 1568
1537 1539 1539 1541 1544 1547 1550 1552 1554 1556 1557 1558 1559 1559 1560 1561 1561 1562 1562 1562 1563 1563 1563 1564 1564 1564 1564 1564 1564 1563 1563 1563 1564 1566 1566 1566 1564 1563 1564 1565 1565 1566 1566
1538 1540 1540 1542 1544 1547 1549 1551 1553 1555 1557 1558 1559 1560 1560 1561 1561 1561 1562 1562 1562 1562 1562 1562 1562 1562 1562 1562 1562 1561 1561 1560 1560 1563 1563 1563 1561 1560 1561 1562 1562 1563 1563
1538 1540 1541 1543 1545 1547 1549 1551 1553 1555 1556 1558 1559 1559 1560 1560 1560 1560 1561 1561 1561 1561 1561 1560 1560 1560 1560 1559 1559 1559 1558 1557 1557 1560 1559 1559 1557 1557 1557 1558 1558 1559 1560
1536 1538 1541 1543 1545 1547 1550 1550 1552 1554 1555 1557 1558 1558 1558 1559 1561 1560 1560 1559 1559 1559 1558 1558 1558 1557 1557 1556 1556 1556 1555 1555 1557 1557 1557 1555 1554 1554 1554 1554 1554 1555 1556
1534 1536 1539 1542 1544 1547 1550 1550 1552 1553 1555 1555 1557 1557 1557 1558 1559 1560 1559 1558 1557 1557 1557 1556 1556 1555 1554 1555 1555 1553 1553 1553 1554 1553 1553 1551 1550 1550 1550 1550 1550 1551 1551
1533 1536 1537 1540 1542 1545 1548 1550 1552 1553 1554 1554 1555 1555 1556 1557 1557 1558 1558 1557 1556 1555 1555 1555 1554 1554 1554 1553 1552 1552 1552 1552 1551 1550 1550 1547 1547 1546 1546 1546 1546 1546 1547
1532 1535 1537 1538 1540 1542 1546 1548 1550 1551 1552 1553 1553 1553 1555 1555 1555 1556 1555 1556 1555 1554 1553 1552 1552 1552 1551 1550 1550 1549 1548 1548 1548 1547 1546 1544 1544 1543 1543 1542 1542 1542 1542
1530 1533 1536 1536 1538 1540 1543 1545 1547 1549 1551 1551 1551 1551 1551 1553 1553 1553 1552 1552 1552 1552 1551 1550 1549 1548 1547 1547 1547 1546 1545 1544 1543 1543 1542 1540 1540 1539 1539 1538 1538 1538 1538
1529 1532 1534 1534 1536 1538 1540 1541 1543 1546 1546 1548 1548 1549 1548 1549 1550 1550 1549 1549 1549 1549 1548 1547 1547 1545 1544 1544 1543 1542 1541 1541 1540 1539 1538 1537 1536 1535 1535 1534 1534 1534 1534
1528 1531 1531 1532 1534 1535 1537 1538 1541 1542 1544 1544 1544 1544 1544 1546 1546 1547 1547 1546 1546 1546 1545 1543 1543 1542 1540 1540 1539 1538 1537 1536 1535 1534 1533 1533 1533 1531 1530 1530 1529 1529 1529
1527 1528 1530 1531 1531 1532 1534 1535 1538 1539 1540 1540 1541 1541 1541 1542 1543 1543 1543 1543 1543 1542 1541 1540 1539 1538 1537 1536 1535 1534 1533 1531 1530 1529 1528 1527 1527 1527 1526 1525 1525 1525 1525
1524 1525 1526 1527 1529 1530 1530 1531 1533 1534 1535 1536 1537 1538 1539 1539 1539 1540 1540 1539 1539 1538 1537 1536 1535 1534 1533 1531 1530 1528 1527 1526 1524 1523 1522 1522 1521 1520 1520 1520 1519 1519 1520
1520 1521 1522 1523 1524 1526 1526 1527 1528 1529 1530 1531 1533 1534 1535 1536 1536 1536 1536 1535 1534 1533 1533 1532 1531 1529 1528 1527 1525 1523 1521 1519 1518 1516 1515 1515 1514 1514 1514 1514 1514 1514 1514
1517 1517 1517 1518 1519 1520 1521 1522 1522 1523 1524 1526 1528 1529 1530 1531 1532 1532 1531 1530 1529 1528 1528 1528 1527 1525 1524 1523 1521 1517 1515 1512 1510 1509 1508 1508 1508 1507 1507 1507 1507 1509 1509
1513 1514 1514 1513 1514 1514 1515 1516 1517 1518 1519 1520 1521 1522 1524 1525 1525 1526 1526 1525 1524 1523 1523 1523 1521 1520 1519 1518 1516 1513 1509 1508 1505 1504 1503 1502 1501 1501 1500 1500 1500 1500 1503
1510 1510 1509 1509 1509 1509 1509 1510 1510 1511 1511 1512 1513 1513 1516 1517 1518 1516 1517 1516 1517 1518 1519 1518 1516 1515 1514 1513 1511 1511 1508 1503 1502 1500 1499 1498 1496 1495 1495 1494 1494 1494 1495
1506 1506 1505 1504 1504 1504 1503 1504 1504 1504 1505 1505 1505 1506 1508 1508 1508 1507 1507 1509 1512 1514 1514 1513 1512 1510 1509 1508 1507 1505 1504 1502 1500 1496 1495 1493 1492 1490 1490 1489 1489 1489 1490
1504 1503 1502 1500 1499 1499 1498 1498 1498 1498 1498 1499 1499 1499 1499 1500 1500 1500 1500 1502 1506 1508 1508 1508 1507 1506 1505 1504 1503 1501 1500 1497 1495 1494 1490 1489 1488 1487 1486 1485 1485 1485 1486
1503 1501 1499 1497 1495 1494 1493 1493 1492 1492 1493 1493 1493 1493 1494 1495 1494 1495 1496 1498 1500 1502 1503 1503 1503 1502 1501 1499 1498 1497 1496 1494 1492 1490 1487 1485 1484 1483 1482 1481 1481 1481 1481